Погода в Мезмай

Россия / Краснодарский край     44°11′52″N   39°57′34″E
темп.,
°C
ветер,
м/с
пор.,
м/с
влажн.,
%
обл.,
%
осадки,
мм/ч
давл.,
гПа
погр.,
м
26 января, вт
вт2600:00+4ю4355100 0.0 101554
03:00+2ю3364100 0.0 101656
06:00+4ю3491100 1.9 1018112
09:00+5ю3480100 2.3 101985
12:00+9ююв237188 0.0 1018394
15:00+9ююв237283 0.0 1016260
18:00+5ююв337468 0.0 101742
21:00+5ююв337084 0.0 101641
27 января, ср
ср2700:00+6ю3371100 0.0 101544
03:00+6ююв3369100 0.0 101445
06:00+6ююв3368100 0.0 101231
09:00+7ю2265100 0.0 101129
12:00+11ююв1166100 0.0 100968
15:00+11ююз1173100 0.0 100670
18:00+7ю2367100 0.0 100633
21:00+6ююв3360100 0.0 100536
28 января, чт
чт2800:00+6ююв335551 0.0 100435
03:00+6ююв335269 0.0 100327
06:00+6ююв335798 0.0 100330
09:00+7ю336598 0.0 100468
12:00+8ююв1376100 0.1 1006318
15:00+6зюз2486100 0.9 1007344
18:00+4з1293100 1.6 1008180
21:00+2з2596100 6.1 1009331
29 января, пт
пт2900:00+1зсз1197100 3.1 1010111
03:00+1зсз1198100 4.2 1010106
06:00+1з0197100 0.8 1011132
09:00+1ююз1288100 1.1 1012209
12:00+4юз295554 0.0 10121901
15:00+3юз3126168 0.1 10111727
18:000зюз1297100 2.9 1011173
21:000ююз1493100 5.2 1011317
30 января, сб
сб3000:00−1ююз1493100 0.7 1011203
03:00−1ю2488100 1.7 1010141
06:00−2ююз238653 0.5 100970
09:000ююз258861 1.2 1010365
12:00+4юз3106825 0.4 10101352
15:00+5ю266758 0.5 10091092
18:00+1ююв347585 0.0 100884
21:00+2ююв237392 0.0 100660